• In Hungary
  • List of Countries
  • For 7 days
  • Water Temperature
  • Satellite Maps
  • Weather Map
  • News
  • Weather Widgets
  • user-avatar
    Login

    Hourly Weather Stepnoy

    Today, 18 December, Monday

    Time Temperature Precipitation Wind Pressure Humidity
    00:00 -17°C° 0 mm 4 mps 728 mmHg 89%
    01:00 -17°C° 0 mm 3 mps 728 mmHg 90%
    02:00 -17°C° 0 mm 3 mps 729 mmHg 91%
    03:00 -17°C° 0 mm 2 mps 729 mmHg 92%
    04:00 -17°C° 0 mm 2 mps 729 mmHg 93%
    05:00 -17°C° 0 mm 2 mps 729 mmHg 93%
    06:00 -18°C° 0 mm 2 mps 729 mmHg 93%
    07:00 -17°C° 0 mm 2 mps 730 mmHg 94%
    08:00 -16°C° 0 mm 2 mps 729 mmHg 92%
    09:00 -13°C° 0 mm 1 mps 729 mmHg 91%
    10:00 -12°C° 0 mm 1 mps 729 mmHg 90%
    11:00 -11°C° 0 mm 1 mps 728 mmHg 88%
    12:00 -12°C° 0 mm 2 mps 728 mmHg 86%
    13:00 -9°C° 0 mm 2 mps 728 mmHg 84%
    14:00 -10°C° 0.2 mm 2 mps 727 mmHg 87%
    15:00 -10°C° 0.2 mm 2 mps 727 mmHg 90%
    16:00 -9°C° 0.2 mm 1 mps 726 mmHg 94%
    17:00 -10°C° 0.2 mm 2 mps 726 mmHg 94%
    18:00 -10°C° 0.2 mm 2 mps 726 mmHg 94%
    19:00 -10°C° 0.2 mm 2 mps 725 mmHg 94%
    20:00 -10°C° 0.2 mm 3 mps 725 mmHg 94%
    21:00 -10°C° 0.2 mm 3 mps 725 mmHg 93%
    22:00 -9°C° 0.2 mm 3 mps 725 mmHg 93%
    23:00 -9°C° 0.2 mm 3 mps 724 mmHg 93%

    Tomorrow, 19 December, Tuesday

    Time Temperature Precipitation Wind Pressure Humidity
    00:00 -9°C° 0.2 mm 3 mps 724 mmHg 92%
    01:00 -8°C° 0.2 mm 3 mps 724 mmHg 92%
    02:00 -8°C° 0.2 mm 3 mps 724 mmHg 92%
    03:00 -8°C° 0.2 mm 3 mps 723 mmHg 91%
    04:00 -8°C° 0.2 mm 3 mps 723 mmHg 91%
    05:00 -8°C° 0.2 mm 3 mps 723 mmHg 91%
    06:00 -8°C° 0.2 mm 3 mps 723 mmHg 91%
    07:00 -8°C° 0.2 mm 3 mps 723 mmHg 91%
    08:00 -8°C° 0.2 mm 4 mps 723 mmHg 90%
    09:00 -8°C° 0.2 mm 4 mps 723 mmHg 89%
    10:00 -7°C° 0.2 mm 5 mps 723 mmHg 87%
    11:00 -7°C° 0.3 mm 5 mps 723 mmHg 87%
    12:00 -8°C° 0.3 mm 6 mps 723 mmHg 86%
    13:00 -8°C° 0.3 mm 6 mps 723 mmHg 86%
    14:00 -8°C° 0.2 mm 6 mps 723 mmHg 86%
    15:00 -8°C° 0.2 mm 5 mps 724 mmHg 87%
    16:00 -8°C° 0.2 mm 5 mps 724 mmHg 87%
    17:00 -8°C° 0.1 mm 5 mps 724 mmHg 87%
    18:00 -8°C° 0.1 mm 4 mps 724 mmHg 87%
    19:00 -8°C° 0.1 mm 4 mps 724 mmHg 87%
    20:00 -9°C° 0 mm 4 mps 724 mmHg 84%
    21:00 -9°C° 0 mm 4 mps 724 mmHg 82%
    22:00 -8°C° 0 mm 3 mps 724 mmHg 80%
    23:00 -8°C° 0 mm 3 mps 724 mmHg 79%

    Day after tomorrow, 20 December, Wednesday

    Time Temperature Precipitation Wind Pressure Humidity
    00:00 -9°C° 0 mm 3 mps 724 mmHg 78%
    01:00 -9°C° 0 mm 3 mps 724 mmHg 78%
    02:00 -10°C° 0 mm 3 mps 724 mmHg 77%
    03:00 -10°C° 0 mm 3 mps 724 mmHg 77%
    04:00 -12°C° 0 mm 3 mps 724 mmHg 77%
    05:00 -13°C° 0 mm 3 mps 724 mmHg 77%
    06:00 -12°C° 0 mm 2 mps 724 mmHg 77%
    07:00 -13°C° 0 mm 2 mps 724 mmHg 77%
    08:00 -12°C° 0 mm 2 mps 724 mmHg 76%
    09:00 -10°C° 0 mm 2 mps 724 mmHg 75%
    10:00 -9°C° 0 mm 2 mps 724 mmHg 74%
    11:00 -8°C° 0 mm 2 mps 723 mmHg 73%
    12:00 -7°C° 0 mm 2 mps 723 mmHg 72%
    13:00 -6°C° 0 mm 2 mps 722 mmHg 71%
    14:00 -7°C° 0 mm 2 mps 722 mmHg 73%
    15:00 -9°C° 0 mm 2 mps 722 mmHg 76%
    16:00 -12°C° 0 mm 2 mps 721 mmHg 78%
    17:00 -13°C° 0 mm 2 mps 722 mmHg 77%
    18:00 -13°C° 0 mm 2 mps 722 mmHg 77%
    19:00 -14°C° 0 mm 2 mps 722 mmHg 76%
    20:00 -14°C° 0 mm 2 mps 722 mmHg 76%
    21:00 -14°C° 0 mm 2 mps 722 mmHg 76%
    22:00 -15°C° 0 mm 2 mps 722 mmHg 76%
    23:00 -15°C° 0 mm 2 mps 722 mmHg 77%

    21 December, Thursday

    Time Temperature Precipitation Wind Pressure Humidity
    00:00 -15°C° 0 mm 2 mps 722 mmHg 78%
    01:00 -15°C° 0 mm 2 mps 722 mmHg 80%
    02:00 -15°C° 0 mm 2 mps 722 mmHg 80%
    03:00 -16°C° 0 mm 2 mps 722 mmHg 81%
    04:00 -16°C° 0 mm 2 mps 722 mmHg 82%
    05:00 -16°C° 0 mm 2 mps 722 mmHg 82%
    06:00 -14°C° 0 mm 1 mps 722 mmHg 82%
    07:00 -14°C° 0 mm 1 mps 722 mmHg 82%
    08:00 -13°C° 0 mm 1 mps 722 mmHg 81%
    09:00 -12°C° 0 mm 1 mps 723 mmHg 80%
    10:00 -12°C° 0 mm 1 mps 723 mmHg 79%
    11:00 -10°C° 0 mm 1 mps 722 mmHg 79%
    12:00 -10°C° 0 mm 2 mps 722 mmHg 78%
    13:00 -9°C° 0 mm 2 mps 722 mmHg 78%
    14:00 -10°C° 0 mm 2 mps 722 mmHg 81%
    15:00 -13°C° 0 mm 2 mps 722 mmHg 83%
    16:00 -14°C° 0 mm 2 mps 722 mmHg 86%
    17:00 -15°C° 0 mm 2 mps 722 mmHg 85%
    18:00 -15°C° 0 mm 2 mps 722 mmHg 84%
    19:00 -16°C° 0 mm 2 mps 722 mmHg 83%
    20:00 -16°C° 0 mm 2 mps 722 mmHg 83%
    21:00 -16°C° 0 mm 2 mps 722 mmHg 82%
    22:00 -16°C° 0 mm 2 mps 722 mmHg 82%
    23:00 -16°C° 0 mm 2 mps 722 mmHg 82%

    22 December, Friday

    Time Temperature Precipitation Wind Pressure Humidity
    00:00 -16°C° 0 mm 2 mps 722 mmHg 82%
    01:00 -16°C° 0 mm 2 mps 721 mmHg 82%
    02:00 -16°C° 0 mm 2 mps 721 mmHg 83%
    03:00 -17°C° 0 mm 2 mps 721 mmHg 83%
    04:00 -15°C° 0 mm 1 mps 721 mmHg 83%
    05:00 -15°C° 0 mm 1 mps 721 mmHg 83%
    06:00 -15°C° 0 mm 1 mps 721 mmHg 84%
    07:00 -16°C° 0 mm 1 mps 721 mmHg 84%
    08:00 -15°C° 0 mm 1 mps 721 mmHg 84%
    09:00 -14°C° 0 mm 1 mps 722 mmHg 84%
    10:00 -13°C° 0 mm 1 mps 722 mmHg 84%
    11:00 -13°C° 0 mm 2 mps 722 mmHg 84%
    12:00 -12°C° 0 mm 2 mps 722 mmHg 85%
    13:00 -10°C° 0 mm 2 mps 721 mmHg 85%
    14:00 -12°C° 0 mm 2 mps 721 mmHg 87%
    15:00 -13°C° 0 mm 2 mps 721 mmHg 90%
    16:00 -14°C° 0 mm 2 mps 721 mmHg 92%
    17:00 -14°C° 0.1 mm 2 mps 721 mmHg 92%
    18:00 -12°C° 0.1 mm 1 mps 721 mmHg 93%
    19:00 -13°C° 0.1 mm 1 mps 722 mmHg 93%
    20:00 -13°C° 0.1 mm 1 mps 721 mmHg 93%
    21:00 -13°C° 0.1 mm 1 mps 721 mmHg 94%
    22:00 -13°C° 0.1 mm 1 mps 721 mmHg 94%
    23:00 -15°C° 0.1 mm 2 mps 721 mmHg 94%

    23 December, Saturday

    Time Temperature Precipitation Wind Pressure Humidity
    00:00 -15°C° 0.1 mm 2 mps 721 mmHg 94%
    01:00 -15°C° 0.1 mm 2 mps 721 mmHg 94%
    02:00 -15°C° 0.1 mm 2 mps 721 mmHg 94%
    03:00 -15°C° 0.1 mm 2 mps 721 mmHg 93%
    04:00 -14°C° 0.1 mm 2 mps 721 mmHg 93%
    05:00 -14°C° 0.1 mm 2 mps 722 mmHg 92%
    06:00 -15°C° 0.1 mm 3 mps 722 mmHg 92%
    07:00 -15°C° 0.1 mm 3 mps 722 mmHg 92%
    08:00 -15°C° 0.1 mm 3 mps 722 mmHg 90%
    09:00 -15°C° 0.1 mm 4 mps 722 mmHg 88%
    10:00 -15°C° 0.1 mm 4 mps 722 mmHg 86%
    11:00 -14°C° 0.1 mm 5 mps 722 mmHg 84%
    12:00 -14°C° 0.1 mm 5 mps 722 mmHg 83%
    13:00 -14°C° 0.1 mm 5 mps 723 mmHg 81%
    14:00 -15°C° 0.1 mm 5 mps 723 mmHg 83%
    15:00 -15°C° 0.1 mm 5 mps 724 mmHg 85%
    16:00 -16°C° 0.1 mm 4 mps 724 mmHg 86%
    17:00 -17°C° 0.1 mm 4 mps 725 mmHg 87%
    18:00 -17°C° 0.1 mm 4 mps 726 mmHg 88%
    19:00 -18°C° 0.1 mm 4 mps 726 mmHg 88%
    20:00 -19°C° 0 mm 4 mps 727 mmHg 89%
    21:00 -19°C° 0 mm 4 mps 727 mmHg 89%
    22:00 -19°C° 0 mm 3 mps 727 mmHg 90%
    23:00 -19°C° 0 mm 3 mps 728 mmHg 90%
    Show more